Carrollton, GA

8:18 AM EST on December 15, 2019 (GMT -0500)
West Georgia Regional-Gray

Weather History for KCTJ - November, 2019

Change the Weather History Date:

Tuesday, November 12, 2019

  Actual Average Record
Temperature  
Mean Temperature 38 °F -  
Max Temperature 55 °F 64 °F 77 °F (1949)
Min Temperature 21 °F 38 °F 24 °F (1950)
Degree Days  
Heating Degree Days 27    
Moisture  
Dew Point 31 °F    
Average Humidity 84    
Maximum Humidity 99    
Minimum Humidity 67    
Precipitation  
Precipitation 0.00 in - - ()
Sea Level Pressure  
Sea Level Pressure 30.16 in    
Wind  
Wind Speed 10 mph ()    
Max Wind Speed 23 mph    
Max Gust Speed 36 mph    
Visibility 9.0 miles    
Events Rain    
Averages and records for this station are not official NWS values.
T = Trace of Precipitation, MM = Missing Value Source: Averaged Metar Reports

Daily Weather History Graph

Daily Weather History Graph

Search for Another Location

Airport or City:

Astronomy

Nov. 12, 2019 Rise Set
Actual Time 7:09 AM EST 5:39 PM EST
Civil Twilight 6:43 AM EST 6:05 PM EST
Nautical Twilight 6:13 AM EST 6:35 PM EST
Astronomical Twilight 5:43 AM EST 7:05 PM EST
Moon 6:05 PM EST (11/12) 7:02 AM EST (11/12)
Length of Visible Light 11h 22m
Length of Day
10h 30m
Full, 100% of the Moon is Illuminated
Nov 12
Full
Nov 19
Last Quarter
Nov 26
New
Dec 4
First Quarter
Dec 12
Full

Hourly Weather History & Observations

Time (EST) Temp. Windchill Dew Point Humidity Pressure Visibility Wind Dir Wind Speed Gust Speed Precip Events Conditions
12:15 AM 54.0 °F - 53.4 °F 98% 30.05 in 5.0 mi Calm Calm - N/A Rain Rain
12:35 AM 54.5 °F - 54.0 °F 98% 30.03 in 5.0 mi Calm Calm - N/A Rain Light Rain
12:55 AM 54.5 °F - 54.0 °F 98% 30.01 in 5.0 mi Calm Calm - N/A Rain Rain
1:35 AM 53.6 °F - 53.2 °F 99% 29.99 in 1.2 mi Calm Calm - N/A   Light Drizzle
1:55 AM 54.1 °F - 53.8 °F 99% 29.98 in 7.0 mi Calm Calm - N/A Rain Light Rain
2:15 AM 54.5 °F - 54.1 °F 99% 29.97 in 7.0 mi Calm Calm - N/A Rain Light Rain
2:35 AM 54.3 °F - 54.0 °F 99% 29.95 in 2.0 mi Calm Calm - N/A   Drizzle
2:55 AM 54.3 °F - 54.0 °F 99% 29.95 in 5.0 mi Calm Calm - N/A Rain Light Rain
3:15 AM 54.5 °F - 54.3 °F 99% 29.93 in 7.0 mi Calm Calm - N/A   Overcast
3:35 AM 54.7 °F - 54.5 °F 99% 29.95 in 10.0 mi NW 5.8 mph - N/A Rain Light Rain
3:55 AM 55.0 °F - 54.3 °F 97% 29.96 in 7.0 mi NNW 13.8 mph 19.6 mph N/A Rain Heavy Rain
4:15 AM 50.5 °F - 48.9 °F 94% 29.99 in 4.0 mi NNW 19.6 mph 29.9 mph N/A Rain Rain
4:35 AM 45.0 °F 37.6 °F 43.0 °F 93% 29.99 in 10.0 mi NNW 17.3 mph 27.6 mph N/A Rain Rain
4:55 AM 43.5 °F 36.7 °F 41.9 °F 94% 30.02 in 7.0 mi NNW 13.8 mph 21.9 mph N/A Rain Rain
5:35 AM 42.4 °F 36.1 °F 41.0 °F 95% 30.04 in 10.0 mi NNW 11.5 mph 17.3 mph N/A Rain Rain
5:55 AM 41.9 °F 33.1 °F 40.1 °F 93% 30.04 in 10.0 mi North 19.6 mph 25.3 mph N/A Rain Rain
6:15 AM 40.8 °F 32.3 °F 39.0 °F 93% 30.04 in 10.0 mi North 17.3 mph 23.0 mph N/A Rain Rain
6:35 AM 39.6 °F 30.3 °F 37.6 °F 93% 30.06 in 10.0 mi NNW 18.4 mph 26.5 mph N/A Rain Light Rain
6:55 AM 37.9 °F 28.9 °F 35.6 °F 91% 30.08 in 10.0 mi North 16.1 mph 31.1 mph N/A Rain Light Rain
7:15 AM 36.7 °F 27.6 °F 34.5 °F 92% 30.10 in 7.0 mi North 15.0 mph 23.0 mph N/A Rain Light Rain
7:35 AM 36.1 °F 28.2 °F 34.5 °F 94% 30.10 in 5.0 mi NNW 11.5 mph 26.5 mph N/A Rain Rain
7:55 AM 35.4 °F 25.6 °F 33.6 °F 93% 30.11 in 7.0 mi North 16.1 mph 27.6 mph N/A Rain Light Rain
8:15 AM 34.7 °F 24.3 °F 32.7 °F 92% 30.13 in 10.0 mi North 17.3 mph 35.7 mph N/A   Overcast
8:35 AM 34.5 °F 22.8 °F 32.4 °F 92% 30.13 in 10.0 mi North 21.9 mph 28.8 mph N/A   Overcast
8:55 AM 34.2 °F 24.4 °F 32.0 °F 92% 30.14 in 10.0 mi NNW 15.0 mph 25.3 mph N/A   Overcast
9:15 AM 34.0 °F 22.4 °F 32.0 °F 92% 30.15 in 10.0 mi North 20.7 mph 27.6 mph N/A   Overcast
9:35 AM 33.8 °F 22.2 °F 30.7 °F 89% 30.15 in 10.0 mi North 20.7 mph 35.7 mph N/A   Overcast
9:55 AM 33.8 °F 24.8 °F 30.7 °F 89% 30.17 in 10.0 mi NNW 12.7 mph 21.9 mph N/A   Overcast
10:15 AM 33.1 °F 22.6 °F 30.9 °F 92% 30.17 in 10.0 mi NNW 16.1 mph 25.3 mph N/A   Overcast
10:35 AM 32.9 °F 22.8 °F 30.6 °F 91% 30.19 in 10.0 mi NNW 15.0 mph 20.7 mph N/A   Overcast
10:55 AM 32.9 °F 22.0 °F 29.8 °F 88% 30.19 in 10.0 mi NNW 17.3 mph 29.9 mph N/A   Overcast
11:15 AM 32.5 °F 23.2 °F 29.3 °F 88% 30.20 in 10.0 mi NNW 12.7 mph 23.0 mph N/A   Overcast
11:35 AM 32.5 °F 21.2 °F 29.3 °F 88% 30.20 in 10.0 mi North 18.4 mph 29.9 mph N/A   Overcast
11:55 AM 32.4 °F 20.9 °F 28.9 °F 87% 30.20 in 10.0 mi NNW 18.4 mph 26.5 mph N/A   Overcast
12:15 PM 32.0 °F 22.1 °F 28.2 °F 86% 30.20 in 10.0 mi NNW 13.8 mph 24.2 mph N/A   Overcast
12:35 PM 32.0 °F 20.1 °F 27.7 °F 84% 30.20 in 10.0 mi NNW 19.6 mph 25.3 mph N/A   Overcast
12:55 PM 32.2 °F 20.7 °F 27.0 °F 81% 30.20 in 10.0 mi North 18.4 mph 26.5 mph N/A   Overcast
1:15 PM 32.2 °F 21.4 °F 26.8 °F 80% 30.20 in 10.0 mi NNW 16.1 mph 25.3 mph N/A   Overcast
1:35 PM 32.0 °F 19.8 °F 26.4 °F 80% 30.20 in 10.0 mi NNW 20.7 mph 27.6 mph N/A   Overcast
1:55 PM 32.0 °F 19.8 °F 26.1 °F 79% 30.20 in 10.0 mi North 20.7 mph 26.5 mph N/A   Overcast
2:15 PM 32.0 °F 21.2 °F 24.8 °F 75% 30.20 in 10.0 mi NNW 16.1 mph 26.5 mph N/A   Overcast
2:35 PM 32.2 °F 19.4 °F 24.6 °F 74% 30.20 in 10.0 mi NNW 23.0 mph 28.8 mph N/A   Overcast
2:55 PM 32.4 °F 20.6 °F 24.4 °F 73% 30.20 in 10.0 mi NNW 19.6 mph 29.9 mph N/A   Overcast
3:15 PM 32.4 °F 20.9 °F 23.9 °F 71% 30.20 in 10.0 mi NNW 18.4 mph 25.3 mph N/A   Overcast
3:35 PM 32.4 °F 21.7 °F 23.5 °F 70% 30.21 in 10.0 mi North 16.1 mph 25.3 mph N/A   Overcast
3:55 PM 32.7 °F 23.9 °F 23.5 °F 69% 30.21 in 10.0 mi NNW 11.5 mph 24.2 mph N/A   Mostly Cloudy
4:15 PM 33.1 °F 21.5 °F 23.4 °F 67% 30.21 in 10.0 mi North 19.6 mph 26.5 mph N/A   Scattered Clouds
4:35 PM 32.9 °F 24.1 °F 23.2 °F 67% 30.22 in 10.0 mi NNW 11.5 mph - N/A   Scattered Clouds
4:55 PM 32.4 °F 24.6 °F 23.4 °F 69% 30.22 in 10.0 mi NNW 9.2 mph - N/A   Mostly Cloudy
5:15 PM 31.5 °F 21.4 °F 22.3 °F 69% 30.23 in 10.0 mi North 13.8 mph 23.0 mph N/A   Scattered Clouds
5:35 PM 30.4 °F 21.0 °F 22.1 °F 71% 30.24 in 10.0 mi NNW 11.5 mph - N/A   Mostly Cloudy
5:55 PM 29.3 °F 19.6 °F 21.7 °F 73% 30.25 in 10.0 mi North 11.5 mph 16.1 mph N/A   Mostly Cloudy
6:15 PM 28.6 °F 15.6 °F 19.9 °F 70% 30.25 in 10.0 mi North 19.6 mph 27.6 mph N/A   Scattered Clouds
6:35 PM 28.0 °F 15.7 °F 18.9 °F 68% 30.26 in 10.0 mi North 17.3 mph 27.6 mph N/A   Clear
6:55 PM 27.1 °F 14.9 °F 18.3 °F 69% 30.26 in 10.0 mi NNW 16.1 mph 27.6 mph N/A   Clear
7:15 PM 26.4 °F 14.5 °F 18.0 °F 70% 30.27 in 10.0 mi North 15.0 mph 24.2 mph N/A   Clear
7:35 PM 25.7 °F 13.5 °F 17.6 °F 71% 30.27 in 10.0 mi North 15.0 mph 20.7 mph N/A   Clear
8:15 PM 24.6 °F 10.9 °F 16.7 °F 72% 30.28 in 10.0 mi North 18.4 mph 24.2 mph N/A   Clear
8:35 PM 24.1 °F 13.1 °F 16.3 °F 72% 30.29 in 10.0 mi North 11.5 mph 21.9 mph N/A   Clear
8:55 PM 23.5 °F 11.3 °F 16.3 °F 74% 30.29 in 10.0 mi North 13.8 mph 20.7 mph N/A   Clear
9:15 PM 23.2 °F 10.8 °F 16.0 °F 74% 30.29 in 10.0 mi North 13.8 mph 19.6 mph N/A   Clear
9:35 PM 23.0 °F 10.1 °F 16.0 °F 74% 30.29 in 10.0 mi North 15.0 mph 18.4 mph N/A   Clear
9:55 PM 22.8 °F 9.4 °F 15.8 °F 74% 30.30 in 10.0 mi North 16.1 mph 19.6 mph N/A   Clear
10:15 PM 22.6 °F 11.3 °F 15.8 °F 75% 30.30 in 10.0 mi North 11.5 mph 21.9 mph N/A   Clear
10:35 PM 22.3 °F 8.7 °F 15.8 °F 76% 30.30 in 10.0 mi North 16.1 mph 21.9 mph N/A   Clear
10:55 PM 22.1 °F 10.0 °F 15.8 °F 77% 30.30 in 10.0 mi North 12.7 mph 19.6 mph N/A   Clear
11:15 PM 21.7 °F 8.5 °F 15.6 °F 77% 30.30 in 10.0 mi North 15.0 mph 20.7 mph N/A   Clear
11:35 PM 21.7 °F 8.5 °F 15.6 °F 77% 30.30 in 10.0 mi North 15.0 mph 18.4 mph N/A   Clear
11:55 PM 21.6 °F 8.2 °F 15.4 °F 77% 30.29 in 10.0 mi North 15.0 mph 24.2 mph N/A   Clear